www.pogodaiklimat.ru

Погода и климат >> Архив погоды >> Финляндия >> Лаппеенранта Коннунсуо


ПОГОДА в Лаппеенранта Коннунсуо

  • Прогноз погоды в Лаппеенранта Коннунсуо
  • Монитор погоды в Лаппеенранта Коннунсуо

АРХИВ ПОГОДЫ в Лаппеенранта Коннунсуо

Время (UTC), дата Ветер
(напр.,м/с)
 
Видим.   Явления Облачность Т
(С)
Тd
(С)
f
(%)
Тe
(С)
Тes
(С)
Комфортность P
(гПа)
Po
(гПа)
Тmin
(С)
Tmax
(С)
R
(мм)
R24
(мм)
S
(см)
22 8.06 В 2-2
{2}
н/о н/о +17.2 +15.5 90 +18 +18 1017.2 1011.6
23 8.06 ЮВ 2 н/о н/о +18.4 +15.5 83 +19 +19 1016.9 1011.3
00 9.06 штиль 0-1
{2}
н/о н/о +15.6 +14.8 95 +15 +15 1016.8 1011.2
01 9.06 ЮЗ 2-2
{7}
н/о н/о +16.8 +15.3 91 +17 +17 1016.7 1011.0
02 9.06 В 1
{2}
н/о н/о +15.2 +14.4 95 +16 +16 1016.3 1010.6
03 9.06 В 1-2
{2}
н/о н/о +19.8 +16.6 82 +23 +23 комфорт 1015.7 1010.1
04 9.06 Ю 4 н/о н/о +20.9 +16.4 75 +25 +25 комфорт 1015.9 1010.3
05 9.06 Ю 4-6
{6}
н/о н/о +22.2 +17.0 72 +27 +27 душно 1015.8 1010.3
06 9.06 ЮЗ 5-8
{12}
н/о н/о +22.4 +16.3 68 +27 +27 душно 1016.0 1010.5 +14.9 +24.9
07 9.06 ЮЗ 5 н/о н/о +23.4 +16.6 66 +28 +28 душно 1016.3 1010.8
08 9.06 Ю 7-9
{13}
н/о н/о +21.2 +15.9 72 +25 +25 комфорт 1016.9 1011.4
09 9.06 Ю 4-6
{8}
н/о н/о +19.2 +18.3 95 +21 +21 комфорт 1017.1 1011.5
10 9.06 ЮЗ 5 н/о н/о +21.0 +19.1 89 +26 +26 душно 1017.2 1011.7
11 9.06 ЮЗ 7 н/о н/о +23.5 +13.7 54 +26 +26 жарко 1017.2 1011.7
12 9.06 З 6-9
{11}
н/о н/о +24.1 +12.4 48 +26 +26 жарко 1017.1 1011.6
13 9.06 ЮЗ 8 н/о н/о +24.4 +11.6 45 +26 +26 жарко 1016.8 1011.3
14 9.06 З 7-11
{11}
н/о н/о +24.4 +11.2 44 +26 +26 жарко 1016.5 1011.0
15 9.06 З 7-11
{11}
н/о н/о +23.7 +10.5 43 +25 +25 комфорт 1017.1 1011.6
16 9.06 З 7 н/о н/о +23.2 +9.4 41 +25 +25 комфорт 1017.1 1011.6
17 9.06 З 7 н/о н/о +22.3 +9.5 44 +24 +24 комфорт 1017.2 1011.7
18 9.06 З 7-9
{10}
н/о н/о +20.6 +8.3 45 +22 +22 комфорт 1017.6 1012.0 +18.7 +24.9
19 9.06 ЮЗ 5-8
{9}
н/о н/о +18.5 +8.0 50 +18 +18 1018.3 1012.7
20 9.06 ЮЗ 6-9
{10}
н/о н/о +17.1 +8.4 57 +16 +16 1018.8 1013.1
21 9.06 З 5-8
{9}
н/о н/о +15.5 +6.6 55 +14 +14 1019.2 1013.5
22 9.06 ЮЗ 3-4
{8}
н/о н/о +13.5 +6.4 62 +12 +12 1019.5 1013.8
23 9.06 ЮЗ 3-5
{5}
н/о н/о +12.3 +6.3 67 +11 +11 1019.4 1013.7
00 10.06 ЮЗ 4-5
{7}
н/о н/о +11.7 +6.3 69 +10 +10 1019.3 1013.5
01 10.06 ЮЗ 3 н/о н/о +10.9 +6.4 74 +9 +9 1019.3 1013.5
02 10.06 Ю 3 н/о н/о +11.1 +6.9 75 +9 +9 1019.0 1013.2
03 10.06 ЮЗ 4-6
{6}
н/о н/о +13.0 +8.8 76 +11 +11 1019.1 1013.3
04 10.06 ЮЗ 6-9
{9}
н/о н/о +14.4 +9.4 72 +13 +13 1019.1 1013.4
05 10.06 ЮЗ 6 н/о н/о +15.9 +10.0 68 +15 +15 1019.1 1013.4
06 10.06 ЮЗ 7-10
{10}
н/о н/о +17.1 +9.4 60 +16 +16 1018.6 1012.9 +10.4 +20.6
07 10.06 ЮЗ 9-11
{13}
н/о н/о +17.1 +8.7 58 +16 +16 1018.6 1013.0
08 10.06 ЮЗ 7 н/о н/о +17.8 +9.8 59 +17 +17 1018.4 1012.8
09 10.06 Ю 7-9
{12}
н/о н/о +18.6 +8.9 53 +18 +18 1018.3 1012.7
10 10.06 ЮЗ 8 н/о н/о +19.8 +9.5 51 +20 +20 1018.2 1012.6
11 10.06 З 9 н/о н/о +20.3 +6.9 42 +21 +21 комфорт 1018.2 1012.6
12 10.06 ЮЗ 7-11
{13}
н/о н/о +20.2 +9.8 51 +21 +21 комфорт 1018.1 1012.5
13 10.06 ЮЗ 9 н/о н/о +19.1 +9.1 52 +19 +19 1017.9 1012.3
14 10.06 ЮЗ 8 н/о н/о +20.0 +9.4 50 +21 +21 комфорт 1017.8 1012.2
15 10.06 ЮЗ 8-11
{13}
н/о н/о +19.3 +8.8 51 +19 +19 1017.8 1012.2
16 10.06 ЮЗ 9-11
{13}
н/о н/о +19.0 +8.4 50 +19 +19 1018.0 1012.4
17 10.06 ЮЗ 7 н/о н/о +18.7 +8.5 51 +18 +18 1018.1 1012.4
18 10.06 ЮЗ 5-8
{10}
н/о н/о +17.3 +8.3 55 +17 +17 1018.3 1012.6 +16.7 +20.7
19 10.06 ЮЗ 4 н/о н/о +15.7 +8.3 61 +15 +15 1018.7 1013.0
20 10.06 ЮЗ 4-6
{7}
н/о н/о +14.0 +8.0 67 +13 +13 1018.7 1013.0
21 10.06 ЮЗ 3-4
{6}
н/о н/о +12.1 +7.7 74 +11 +11 1019.1 1013.4
22 10.06 ЮЗ 3-3
{4}
н/о н/о +11.2 +7.1 76 +9 +9 1019.4 1013.6
23 10.06 З 2 н/о н/о +10.3 +6.3 76 +9 +9 1019.9 1014.1
00 11.06 ЮЗ 1-1
{3}
н/о н/о +7.0 +6.2 95 +6 +6 1020.5 1014.6
01 11.06 ЮЗ 1-4
{4}
н/о н/о +6.9 +6.2 95 +6 +6 1020.8 1014.9
02 11.06 З 2 н/о н/о +9.0 +6.6 85 +7 +7 1021.0 1015.1
03 11.06 ЮЗ 3-4
{4}
н/о н/о +11.7 +8.2 79 +10 +10 1021.2 1015.4
04 11.06 З 3 н/о н/о +13.8 +8.9 72 +13 +13 1021.2 1015.5
05 11.06 ЮЗ 4-5
{5}
н/о н/о +15.5 +9.3 67 +15 +15 1021.4 1015.7
06 11.06 З 4-6
{6}
н/о н/о +17.9 +9.4 58 +18 +18 1021.4 1015.7 +5.6 +17.9
07 11.06 З 4 н/о н/о +18.8 +9.7 55 +19 +19 1021.6 1016.0
08 11.06 З 4 н/о н/о +19.8 +10.0 53 +21 +21 комфорт 1021.7 1016.0
09 11.06 З 3-6
{8}
н/о н/о +20.9 +8.8 46 +23 +23 комфорт 1021.8 1016.2
10 11.06 З 4-7
{8}
н/о н/о +21.3 +9.3 46 +23 +23 комфорт 1021.5 1015.9
11 11.06 ЮЗ 4 н/о н/о +21.8 +9.9 47 +23 +23 комфорт 1021.7 1016.1
12 11.06 С 4-6
{7}
н/о н/о +22.0 +8.3 41 +23 +23 комфорт 1021.3 1015.8
13 11.06 С 4 н/о н/о +21.8 +8.0 41 +23 +23 комфорт 1021.2 1015.7
14 11.06 С 4-6
{6}
н/о н/о +21.5 +8.5 43 +23 +23 комфорт 1021.5 1015.9
15 11.06 С 3-4
{6}
н/о н/о +21.3 +9.5 47 +23 +23 комфорт 1021.4 1015.8
16 11.06 С 4 н/о н/о +21.3 +9.9 48 +23 +23 комфорт 1021.4 1015.8
17 11.06 С 3 н/о н/о +19.9 +9.7 52 +21 +21 комфорт 1021.3 1015.7
18 11.06 С 4-7
{9}
н/о н/о +18.1 +7.5 50 +18 +18 1021.9 1016.2 +17.8 +23.2
19 11.06 С 4-6
{8}
н/о н/о +17.0 +6.5 50 +17 +17 1022.4 1016.7
20 11.06 С 3 н/о н/о +15.9 +6.0 52 +16 +16 1023.0 1017.3
21 11.06 С 3-5
{6}
н/о н/о +14.6 +5.1 53 +14 +14 1023.4 1017.6
22 11.06 С 2-4
{6}
н/о н/о +14.1 +4.6 53 +14 +14 1023.7 1018.0
23 11.06 С 4-8
{8}
н/о н/о +13.3 +3.7 52 +12 +12 1023.6 1017.8
00 12.06 С 3-5
{7}
н/о н/о +12.0 +3.8 57 +11 +11 1024.4 1018.6
01 12.06 С 4 н/о н/о +10.9 +3.0 58 +9 +9 1024.5 1018.7
02 12.06 СВ 4 н/о н/о +10.6 +3.2 60 +8 +8 1024.9 1019.0
03 12.06 СВ 4-6
{7}
н/о н/о +11.1 +3.5 59 +9 +9 1025.6 1019.7
04 12.06 СВ 5 н/о н/о +11.8 +3.0 55 +10 +10 1025.5 1019.7
05 12.06 В 5 н/о н/о +12.9 +3.1 51 +11 +11 1025.9 1020.1
06 12.06 В 6-9
{9}
н/о н/о +13.7 +2.3 46 +12 +12 1026.4 1020.6 +10.5 +18.1
07 12.06 В 5 н/о н/о +14.4 +2.5 45 +13 +13 1026.4 1020.7
08 12.06 В 6 н/о н/о +14.8 +2.1 42 +13 +13 1026.9 1021.2
09 12.06 В 5-8
{9}
н/о н/о +15.0 +1.9 41 +14 +14 1027.2 1021.5
10 12.06 В 5 н/о н/о +15.5 +2.2 41 +14 +14 1027.4 1021.7
11 12.06 СВ 5 н/о н/о +15.8 +2.9 42 +15 +15 1027.4 1021.7
12 12.06 СВ 4-7
{10}
н/о н/о +15.7 +2.4 41 +15 +15 1027.4 1021.7
13 12.06 В 5-6
{10}
н/о н/о +15.8 +3.0 42 +15 +15 1027.3 1021.5
14 12.06 В 3 н/о н/о +16.0 +3.3 43 +16 +16 1027.1 1021.4
15 12.06 В 5-7
{10}
н/о н/о +15.9 +3.2 43 +15 +15 1027.2 1021.5
16 12.06 В 5-9
{9}
н/о н/о +15.2 +3.4 45 +14 +14 1027.3 1021.5
17 12.06 В 7-9
{11}
н/о н/о +13.8 +1.9 44 +12 +12 1027.4 1021.6
18 12.06 В 4-7
{9}
н/о н/о +12.5 +1.2 46 +11 +11 1027.6 1021.8 +12.5 +16.9
19 12.06 В 3 н/о н/о +10.7 +1.4 53 +9 +9 1027.6 1021.7
20 12.06 В 2-3
{4}
н/о н/о +8.4 +2.0 64 +7 +7 1027.8 1021.9
21 12.06 СВ 2-3
{3}
н/о н/о +6.0 +1.8 74 +4 +4 1028.0 1022.0
22 12.06 штиль 0
{1}
н/о н/о +5.3 +2.2 80 +4 +4 1028.3 1022.3
23 12.06 В 2-3
{3}
н/о н/о +4.4 +1.8 83 +2 +2 1028.3 1022.4
00 13.06 В 4-4
{5}
н/о н/о +6.5 +1.7 71 +3 +3 1028.5 1022.6
01 13.06 В 3-4
{5}
н/о н/о +7.0 +2.0 70 +4 +4 1028.5 1022.5
02 13.06 В 4-6
{6}
н/о н/о +7.4 +2.6 72 +4 +4 1028.0 1022.1
03 13.06 В 5-7
{7}
н/о н/о +9.1 +3.4 67 +6 +6 1028.0 1022.1
04 13.06 В 6 н/о н/о +10.7 +2.8 58 +8 +8 1027.5 1021.7
05 13.06 В 5-9
{9}
н/о н/о +11.8 +3.3 56 +10 +10 1027.3 1021.5
06 13.06 В 5-8
{9}
н/о н/о +12.4 +3.2 53 +10 +10 1026.7 1020.9 +3.9 +12.7
07 13.06 В 5-8
{9}
н/о н/о +13.5 +3.8 52 +12 +12 1026.4 1020.6
08 13.06 В 8 н/о н/о +15.4 +4.7 49 +14 +14 1025.3 1019.6
09 13.06 В 8-11
{11}
н/о н/о +16.9 +5.8 48 +16 +16 1025.3 1019.6
10 13.06 В 6-8
{11}
н/о н/о +17.1 +6.1 48 +16 +16 1025.0 1019.3
11 13.06 В 6 н/о н/о +18.6 +6.6 45 +18 +18 1024.1 1018.5
12 13.06 В 5-7
{10}
н/о н/о +18.9 +6.5 44 +19 +19 1024.0 1018.4
13 13.06 ЮВ 6 н/о н/о +18.3 +6.2 45 +18 +18 1023.8 1018.1
14 13.06 ЮВ 6-9
{9}
н/о н/о +18.8 +6.9 46 +19 +19 1022.8 1017.1
15 13.06 В 6-9
{9}
н/о н/о +17.9 +6.5 47 +17 +17 1021.0 1015.3
16 13.06 В 5 н/о н/о +16.7 +6.2 50 +16 +16 1021.4 1015.7
17 13.06 В 5-6
{8}
н/о н/о +15.2 +6.6 56 +14 +14 1020.8 1015.1
18 13.06 В 4-6
{7}
н/о н/о +14.7 +6.7 59 +14 +14 1020.1 1014.4 +12.1 +19.4
19 13.06 В 3 н/о н/о +13.9 +7.4 65 +13 +13 1020.9 1015.1
20 13.06 В 4 н/о н/о +13.4 +7.3 67 +12 +12 1019.7 1013.9
21 13.06 В 2-4
{6}
н/о н/о +12.9 +6.9 67 +12 +12 1019.4 1013.7
22 13.06 СВ 3 н/о н/о +12.6 +6.9 68 +11 +11 1018.9 1013.1
23 13.06 В 3-5
{5}
н/о н/о +12.8 +6.6 66 +12 +12 1018.4 1012.6
00 14.06 СВ 3-5
{5}
н/о н/о +12.7 +7.0 68 +11 +11 1017.9 1012.2
01 14.06 СВ 4 н/о н/о +12.5 +6.7 68 +11 +11 1017.5 1011.7
02 14.06 В 4 н/о н/о +12.5 +7.1 70 +11 +11 1017.1 1011.4
03 14.06 В 5-6
{7}
н/о н/о +11.7 +7.5 75 +9 +9 1016.8 1011.0
04 14.06 В 4 н/о н/о +12.1 +7.2 72 +10 +10 1017.1 1011.4
05 14.06 В 6-8
{9}
н/о н/о +12.3 +6.8 69 +10 +10 1016.8 1011.1
06 14.06 В 5-8
{10}
н/о н/о +12.6 +5.6 62 +11 +11 1017.6 1011.9 +11.6 +14.8
07 14.06 В 6-8
{8}
н/о н/о +12.9 +6.1 63 +11 +11 1017.4 1011.7
08 14.06 В 7 н/о н/о +12.9 +6.3 64 +10 +10 1017.9 1012.1
09 14.06 В 6-8
{10}
н/о н/о +13.0 +7.0 67 +11 +11 1018.0 1012.3
10 14.06 В 6 н/о н/о +13.8 +7.7 67 +12 +12 1018.2 1012.4
11 14.06 В 5 н/о н/о +14.6 +8.3 66 +13 +13 1018.3 1012.6
12 14.06 В 5-7
{7}
н/о н/о +15.1 +9.0 67 +14 +14 1018.1 1012.4
13 14.06 В 5-5
{7}
н/о н/о +15.6 +9.2 66 +14 +14 1017.4 1011.7
14 14.06 В 5 н/о н/о +15.8 +9.1 64 +15 +15 1017.2 1011.5
15 14.06 В 4-5
{6}
н/о н/о +15.0 +9.2 68 +14 +14 1016.9 1011.3
16 14.06 В 3 н/о н/о +14.7 +9.5 71 +14 +14 1016.6 1010.9
17 14.06 ЮВ 2 н/о н/о +14.3 +9.4 72 +14 +14 1016.6 1010.9
18 14.06 В 2-2
{3}
н/о н/о +14.0 +9.7 75 +14 +14 1016.0 1010.3 +12.6 +16.2
19 14.06 В 1 н/о н/о +13.5 +10.2 80 +14 +14 1016.0 1010.3
20 14.06 В 2 н/о н/о +12.4 +11.6 95 +11 +11 1015.7 1010.0
21 14.06 ЮВ 2-2
{2}
н/о н/о +12.0 +11.1 94 +11 +11 1015.5 1009.8
22 14.06 ЮВ 1-2
{2}
н/о н/о +11.9 +11.1 95 +12 +12 1015.4 1009.7
23 14.06 ЮВ 1 н/о н/о +12.0 +11.2 95 +12 +12 1014.9 1009.2
00 15.06 В 1-1
{1}
н/о н/о +12.1 +11.3 95 +12 +12 1014.6 1008.8
01 15.06 В 2 н/о н/о +12.2 +11.4 95 +11 +11 1014.1 1008.4
02 15.06 ЮВ 1-1
{2}
н/о н/о +12.2 +11.4 95 +12 +12 1014.1 1008.4
03 15.06 Ю 2-2
{2}
н/о н/о +12.8 +12.0 95 +12 +12 1014.0 1008.2
04 15.06 ЮВ 1 н/о н/о +13.0 +12.3 96 +13 +13 1013.8 1008.1
05 15.06 Ю 2 н/о н/о +13.2 +12.4 95 +12 +12 1013.8 1008.1
06 15.06 З 2-4
{4}
н/о н/о +14.1 +13.2 94 +14 +14 1013.8 1008.1 +11.9 +14.1
07 15.06 З 5-6
{7}
н/о н/о +13.9 +13.1 95 +12 +12 1014.3 1008.6
08 15.06 З 3 н/о н/о +14.2 +13.4 95 +13 +13 1014.5 1008.8
09 15.06 СЗ 5-7
{7}
н/о н/о +14.7 +13.7 94 +13 +13 1014.7 1009.0
10 15.06 СЗ 4-7
{8}
н/о н/о +14.8 +13.8 94 +14 +14 1015.1 1009.4
11 15.06 СЗ 4 н/о н/о +14.9 +13.9 94 +14 +14 1015.5 1009.8
12 15.06 З 3-6
{7}
н/о н/о +14.8 +13.8 94 +14 +14 1015.7 1010.0
13 15.06 СЗ 3 н/о н/о +14.7 +13.7 94 +14 +14 1015.6 1009.9
14 15.06 З 3-4
{6}
н/о н/о +14.8 +13.8 94 +14 +14 1015.7 1010.0
15 15.06 СЗ 3-5
{5}
н/о н/о +15.1 +13.5 90 +14 +14 1015.7 1010.1
16 15.06 СЗ 3 н/о н/о +15.2 +13.5 90 +14 +14 1015.8 1010.1
17 15.06 СЗ 3 н/о н/о +14.7 +13.8 94 +14 +14 1015.8 1010.2
18 15.06 СЗ 2-3
{4}
н/о н/о +14.5 +13.5 94 +14 +14 1015.9 1010.2 +13.7 +15.4
19 15.06 СЗ 2 н/о н/о +14.4 +13.3 93 +14 +14 1015.8 1010.1
20 15.06 С 2 н/о н/о +14.1 +13.2 94 +14 +14 1015.5 1009.8
21 15.06 штиль 0-1
{2}
н/о н/о +13.4 +12.5 94 +13 +13 1015.6 1009.9
22 15.06 З 1 н/о н/о +12.7 +11.9 95 +13 +13 1015.6 1009.9

 

Местоположение метеостанции Лаппеенранта Коннунсуо (Финляндия): широта 61.04 долгота 25.56 высота над уровнем моря 46 м.

В архиве по умолчанию представлена погода в Лаппеенранта Коннунсуо за последнюю неделю. Архивные данные за месяц целиком и за предыдущие месяцы, начиная с января 2011 года, Вы можете получить, выбрав интересующий диапазон дат из раскрывающегося списка и нажав кнопку "Ввод!".


*Определитесь, кто Вы:
робот инопланетянин человек

Внимание! Время в таблицах - всемирное. Для получения местного времени необходимо прибавить поправку, которая равна 1 ч.

Смотрите также архив погоды в соседних городах и на ближайших метеорологических станциях:

Погода в Лахти (Финляндия) (10 км)
Погода в Асиккала (Финляндия) (26 км)
Погода в Ламми Паппила (Финляндия) (27 км)
Погода в Ламми Эво (Финляндия) (31 км)
Погода в Хейноле (Финляндия) (32 км)
Погода на Острове Синго (Финляндия) (50 км)
Погода в Хямеэнлинна (Финляндия) (58 км)
Погода в Хювинкяа (Финляндия) (64 км)
Погода в Лепаа (Финляндия) (67 км)
Погода в Порвоо (Финляндия) (72 км)

Пояснения к столбцам:

Ветер - указаны скорость ветра в м/с - средняя за 10 мин, порывы в срок и между сроками (в фигурных скобках) и направление, откуда дует ветер: С - северный, СВ - северо-восточный, В - восточный, ЮВ - юго-восточный, Ю - южный, ЮЗ - юго-западный, З - западный, СЗ - северо-западный.
Видимость - горизонтальная дальность видимости в метрах или километрах. При видимости от 1 до 10 км при отсутствии осадков обычно наблюдается дымка, при ухудшении видимости до 1 км и менее - туман. В сухую погоду видимость может ухудшаться дымом, пылью или мглою.
Явления - указаны атмосферные явления, наблюдавшиеся в срок или в последний час перед сроком; фигурными скобками обозначены явления, наблюдавшиеся между сроками (за 1-3 часа до срока); квадратными скобками обозначены град или гололедные отложения с указанием их диаметра в мм.
Облачность - указаны через наклонную черту общая и нижняя облачность в баллах и высота нижней границы облаков в метрах; квадратными скобками обозначены формы облаков: Ci - перистые, Cs - перисто-слоистые, Cc - перисто-кучевые, Ac - высококучевые, As - высокослоистые, Sc - слоисто-кучевые, Ns - слоисто-дождевые, Cu - кучевые, Cb - кучево-дождевые. Подробнее классификацию облаков см. в Атласе облаков (PDF).
T - Температура воздуха - температура, измеренная на высоте 2 м над землей.
Td - Температура точки росы - температура, при понижении до которой содержащийся в воздухе водяной пар достигнет насыщения.
f - Относительная влажность воздуха - влажноcть воздуха, измеренная на высоте 2 м над землей.
Te - Эффективная температура - температура, которую ощущает одетый по сезону человек в тени. Характеристика душности погоды. При расчете учитывается влияние влажности воздуха и скорости ветра на теплоощущения человека.
Tes - Эффективная температура на солнце - температура, которую ощущает человек, с поправкой на солнечный нагрев. Характеристика знойности погоды. Зависит от высоты солнца над горизонтом, облачности и скорости ветра. Ночью, в пасмурную погоду, а также при ветре 12 м/с и более поправка равна нулю.
P - Атмосферное давление - приведенное к уровню моря атмосферное давление.
Po - Атмосферное давление - измеренное на уровне метеостанции атмосферное давление.
Tmin - Минимальная температура - минимум температуры воздуха на высоте 2 м над землей.
Tmax - Максимальная температура - максимум температуры воздуха на высоте 2 м над землей.
R - Количество осадков - Количество выпавших осадков за период времени, мм. При наведении курсора мыши на число - период времени, за который выпало указанное количество осадков.
R24 - Количество осадков - Количество выпавших осадков за 24 часа, мм.
S - Снежный покров - Высота снежного покрова, см. При наведении курсора мыши на число - состояние снежного покрова и степень покрытия местности в баллах.